COSMOS 2255

导读

**COSMOS 2255卫星**是独立国家联合体(CIS)发射的“宇宙”系列(COSMOS/Kosmos)卫星之一,属于Strela-3型通信卫星。1993年6月24日,由旋风-3火箭从普列谢茨克发射场送入轨道,承担军事通信任务,是冷战后俄罗斯军事航天体系中低轨通信卫星组网的重要组成部分,至今仍在轨道运行。

基本信息
目录编号:
22690
目录名称:
COSMOS 2255
国际标识:
1993-038D
轨道中心:
EARTH
卫星名称:
COSMOS 2255
卫星全名:
--
卫星状态:
在轨 (已飞行12115 天)
发射日期:
1993-06-24 UTC
国别 :
俄罗斯(独联体) (CIS)
星等 :
--
轨道信息
数据来源 国际轨道数据
星历时间: 2026-08-24T14:56:54+0800
1天前
查看轨道信息
半长轴: 7787.37km
偏心率: 0.0005472
轨道倾角: 82.587°
近地点辐角 175.823°
升交点赤经 186.122°
平近点角 354.009°
近地点: 1404.971km
远地点: 1413.495km
周期: 113.985分钟
每日圈数: 12.633293
详细信息
使用方式:
暂无
2D轨道图
3D轨道图
轨道高度分析图
轨道倾角分析图
轨道综合分析图
查看轨道综合分析图